Time,TemperatureF,DewpointF,PressureIn,WindDirection,WindDirectionDegrees,WindSpeedMPH,WindSpeedGustMPH,Humidity,HourlyPrecipIn,Conditions,Clouds,dailyrainin,SoftwareType,DateUTC
2013-02-23 00:00:00,47.1,44.6,30.21,SE,146,3.0,9.0,91,0.00,,,0.01,Wunderground v.1.15,2013-02-23 08:00:00,
2013-02-23 00:05:00,47.0,44.5,30.21,SSE,150,3.0,9.0,91,0.00,,,0.00,Wunderground v.1.15,2013-02-23 08:05:00,
2013-02-23 00:10:00,46.9,44.4,30.21,South,175,2.0,2.0,91,0.00,,,0.00,Wunderground v.1.15,2013-02-23 08:10:00,
2013-02-23 00:15:00,46.9,44.4,30.20,SW,232,2.0,9.0,91,0.00,,,0.00,Wunderground v.1.15,2013-02-23 08:15:00,
2013-02-23 00:20:00,46.8,44.3,30.21,South,185,1.0,1.0,91,0.00,,,0.00,Wunderground v.1.15,2013-02-23 08:20:00,
2013-02-23 00:25:00,46.7,44.2,30.20,SSE,153,1.0,9.0,91,0.00,,,0.00,Wunderground v.1.15,2013-02-23 08:25:00,
2013-02-23 00:30:00,46.7,44.2,30.19,ENE,76,1.0,1.0,91,0.00,,,0.00,Wunderground v.1.15,2013-02-23 08:30:00,
2013-02-23 00:40:00,46.4,43.9,30.19,ENE,62,1.0,1.0,91,0.00,,,0.00,Wunderground v.1.15,2013-02-23 08:40:00,
2013-02-23 00:45:00,46.4,44.2,30.19,SSE,154,2.0,5.0,92,0.00,,,0.00,Wunderground v.1.15,2013-02-23 08:45:00,
2013-02-23 00:50:00,46.4,44.2,30.19,SSE,167,3.0,3.0,92,0.00,,,0.00,Wunderground v.1.15,2013-02-23 08:50:00,
2013-02-23 00:55:00,46.3,44.1,30.19,SSE,149,3.0,9.0,92,0.00,,,0.00,Wunderground v.1.15,2013-02-23 08:55:00,
2013-02-23 01:00:00,46.3,44.1,30.19,SE,131,2.0,2.0,92,0.00,,,0.00,Wunderground v.1.15,2013-02-23 09:00:00,
2013-02-23 01:05:00,46.2,44.0,30.19,SSE,150,1.0,9.0,92,0.00,,,0.00,Wunderground v.1.15,2013-02-23 09:05:00,
2013-02-23 01:10:00,46.2,44.3,30.19,SE,140,2.0,9.0,93,0.00,,,0.00,Wunderground v.1.15,2013-02-23 09:10:00,
2013-02-23 01:15:00,46.2,44.3,30.20,SSE,162,1.0,9.0,93,0.00,,,0.00,Wunderground v.1.15,2013-02-23 09:15:00,
2013-02-23 01:20:00,46.2,44.3,30.19,SSE,158,1.0,9.0,93,0.00,,,0.00,Wunderground v.1.15,2013-02-23 09:20:00,
2013-02-23 01:25:00,46.3,44.4,30.19,SE,146,2.0,9.0,93,0.00,,,0.00,Wunderground v.1.15,2013-02-23 09:25:00,
2013-02-23 01:30:00,46.3,44.4,30.19,SSE,162,2.0,9.0,93,0.00,,,0.00,Wunderground v.1.15,2013-02-23 09:30:00,
2013-02-23 01:35:00,46.3,44.4,30.19,SE,142,2.0,9.0,93,0.00,,,0.00,Wunderground v.1.15,2013-02-23 09:35:00,
2013-02-23 01:45:00,46.4,44.2,30.19,SW,236,2.0,9.0,92,0.00,,,0.00,Wunderground v.1.15,2013-02-23 09:45:00,
2013-02-23 01:50:00,46.5,44.6,30.18,South,174,2.0,9.0,93,0.00,,,0.00,Wunderground v.1.15,2013-02-23 09:50:00,
2013-02-23 01:55:00,46.6,44.7,30.18,SW,223,4.0,9.0,93,0.00,,,0.00,Wunderground v.1.15,2013-02-23 09:55:00,
2013-02-23 02:00:00,46.7,44.8,30.18,WNW,288,4.0,4.0,93,0.00,,,0.00,Wunderground v.1.15,2013-02-23 10:00:00,
2013-02-23 02:05:00,46.7,44.8,30.18,SW,226,3.0,9.0,93,0.00,,,0.00,Wunderground v.1.15,2013-02-23 10:05:00,
2013-02-23 02:10:00,46.8,44.9,30.18,SW,216,3.0,9.0,93,0.00,,,0.00,Wunderground v.1.15,2013-02-23 10:10:00,
2013-02-23 02:15:00,46.9,45.0,30.18,SW,233,4.0,9.0,93,0.00,,,0.00,Wunderground v.1.15,2013-02-23 10:15:00,
2013-02-23 02:20:00,47.0,45.1,30.19,SW,235,4.0,4.0,93,0.00,,,0.00,Wunderground v.1.15,2013-02-23 10:20:00,
2013-02-23 02:25:00,47.1,45.2,30.19,West,262,3.0,9.0,93,0.00,,,0.00,Wunderground v.1.15,2013-02-23 10:25:00,
2013-02-23 02:30:00,47.2,45.3,30.19,SW,226,4.0,4.0,93,0.00,,,0.00,Wunderground v.1.15,2013-02-23 10:30:00,
2013-02-23 02:35:00,47.3,45.4,30.18,WSW,257,5.0,5.0,93,0.00,,,0.00,Wunderground v.1.15,2013-02-23 10:35:00,
2013-02-23 02:45:00,47.4,45.5,30.17,SW,221,5.0,9.0,93,0.00,,,0.00,Wunderground v.1.15,2013-02-23 10:45:00,
2013-02-23 02:50:00,47.5,45.6,30.18,WSW,248,6.0,6.0,93,0.00,,,0.00,Wunderground v.1.15,2013-02-23 10:50:00,
2013-02-23 02:55:00,47.5,45.6,30.17,WSW,255,5.0,9.0,93,0.00,,,0.00,Wunderground v.1.15,2013-02-23 10:55:00,
2013-02-23 03:00:00,47.6,46.0,30.18,WSW,250,4.0,9.0,94,0.00,,,0.00,Wunderground v.1.15,2013-02-23 11:00:00,
2013-02-23 03:05:00,47.6,46.0,30.18,SW,217,4.0,9.0,94,0.00,,,0.00,Wunderground v.1.15,2013-02-23 11:05:00,
2013-02-23 03:10:00,47.6,46.0,30.17,SW,222,4.0,4.0,94,0.00,,,0.00,Wunderground v.1.15,2013-02-23 11:10:00,
2013-02-23 03:15:00,47.6,46.0,30.17,WSW,239,4.0,5.0,94,0.00,,,0.00,Wunderground v.1.15,2013-02-23 11:15:00,
2013-02-23 03:20:00,47.7,46.1,30.17,SSW,209,4.0,9.0,94,0.00,,,0.00,Wunderground v.1.15,2013-02-23 11:20:00,
2013-02-23 03:25:00,47.7,46.1,30.17,SW,231,4.0,9.0,94,0.00,,,0.00,Wunderground v.1.15,2013-02-23 11:25:00,
2013-02-23 03:30:00,47.7,46.1,30.17,West,262,3.0,3.0,94,0.00,,,0.00,Wunderground v.1.15,2013-02-23 11:30:00,
2013-02-23 03:35:00,47.8,46.2,30.16,SW,226,3.0,4.0,94,0.00,,,0.00,Wunderground v.1.15,2013-02-23 11:35:00,
2013-02-23 03:40:00,47.8,46.2,30.16,South,177,3.0,3.0,94,0.00,,,0.00,Wunderground v.1.15,2013-02-23 11:40:00,
2013-02-23 03:50:00,47.8,46.2,30.16,South,184,1.0,9.0,94,0.00,,,0.00,Wunderground v.1.15,2013-02-23 11:50:00,
2013-02-23 03:55:00,47.9,46.3,30.16,South,178,1.0,9.0,94,0.00,,,0.00,Wunderground v.1.15,2013-02-23 11:55:00,
2013-02-23 04:00:00,47.8,46.2,30.16,WNW,285,1.0,9.0,94,0.00,,,0.00,Wunderground v.1.15,2013-02-23 12:00:00,
2013-02-23 04:05:00,47.9,46.3,30.16,WNW,289,1.0,9.0,94,0.00,,,0.00,Wunderground v.1.15,2013-02-23 12:05:00,
2013-02-23 04:10:00,47.9,46.5,30.16,WSW,244,2.0,9.0,95,0.00,,,0.00,Wunderground v.1.15,2013-02-23 12:10:00,
2013-02-23 04:15:00,48.0,46.6,30.16,WSW,237,3.0,9.0,95,0.00,,,0.00,Wunderground v.1.15,2013-02-23 12:15:00,
2013-02-23 04:20:00,48.1,46.7,30.16,WSW,242,4.0,9.0,95,0.00,,,0.00,Wunderground v.1.15,2013-02-23 12:20:00,
2013-02-23 04:25:00,48.1,46.7,30.16,WSW,240,3.0,9.0,95,0.00,,,0.00,Wunderground v.1.15,2013-02-23 12:25:00,
2013-02-23 04:30:00,48.1,46.7,30.16,SW,215,3.0,3.0,95,0.00,,,0.00,Wunderground v.1.15,2013-02-23 12:30:00,
2013-02-23 04:35:00,48.1,46.7,30.16,SSW,203,2.0,7.0,95,0.00,,,0.00,Wunderground v.1.15,2013-02-23 12:35:00,
2013-02-23 04:40:00,47.9,46.5,30.16,SSW,205,2.0,9.0,95,0.00,,,0.01,Wunderground v.1.15,2013-02-23 12:40:00,
2013-02-23 04:50:00,47.9,46.8,30.15,SE,146,5.0,5.0,96,0.00,,,0.01,Wunderground v.1.15,2013-02-23 12:50:00,
2013-02-23 04:55:00,48.0,46.9,30.15,SSW,194,4.0,9.0,96,0.00,,,0.01,Wunderground v.1.15,2013-02-23 12:55:00,
2013-02-23 05:00:00,48.0,46.9,30.16,West,268,3.0,9.0,96,0.00,,,0.01,Wunderground v.1.15,2013-02-23 13:00:00,
2013-02-23 05:05:00,48.1,47.0,30.16,WSW,238,3.0,9.0,96,0.00,,,0.01,Wunderground v.1.15,2013-02-23 13:05:00,
2013-02-23 05:10:00,48.0,46.9,30.16,WSW,247,5.0,9.0,96,0.00,,,0.01,Wunderground v.1.15,2013-02-23 13:10:00,
2013-02-23 05:15:00,47.8,46.7,30.16,WSW,252,6.0,9.0,96,0.00,,,0.01,Wunderground v.1.15,2013-02-23 13:15:00,
2013-02-23 05:20:00,47.7,46.6,30.15,SW,224,5.0,5.0,96,0.00,,,0.01,Wunderground v.1.15,2013-02-23 13:20:00,
2013-02-23 05:25:00,47.5,46.4,30.15,SW,231,5.0,9.0,96,0.00,,,0.01,Wunderground v.1.15,2013-02-23 13:25:00,
2013-02-23 05:30:00,47.3,46.2,30.15,SW,225,6.0,6.0,96,0.00,,,0.01,Wunderground v.1.15,2013-02-23 13:30:00,
2013-02-23 05:35:00,47.2,46.1,30.16,West,266,6.0,9.0,96,0.00,,,0.01,Wunderground v.1.15,2013-02-23 13:35:00,
2013-02-23 05:40:00,47.2,46.1,30.15,SW,236,4.0,4.0,96,0.00,,,0.01,Wunderground v.1.15,2013-02-23 13:40:00,
2013-02-23 05:45:00,47.1,46.0,30.16,WNW,297,3.0,9.0,96,0.00,,,0.01,Wunderground v.1.15,2013-02-23 13:45:00,
2013-02-23 05:55:00,46.8,45.7,30.16,WSW,245,4.0,9.0,96,0.00,,,0.01,Wunderground v.1.15,2013-02-23 13:55:00,
2013-02-23 06:00:00,46.5,45.4,30.16,West,264,5.0,5.0,96,0.00,,,0.01,Wunderground v.1.15,2013-02-23 14:00:00,
2013-02-23 06:05:00,46.4,45.0,30.16,West,266,5.0,9.0,95,0.00,,,0.01,Wunderground v.1.15,2013-02-23 14:05:00,
2013-02-23 06:10:00,46.2,44.8,30.16,West,278,5.0,9.0,95,0.00,,,0.01,Wunderground v.1.15,2013-02-23 14:10:00,
2013-02-23 06:15:00,46.0,44.6,30.16,WSW,257,5.0,9.0,95,0.00,,,0.01,Wunderground v.1.15,2013-02-23 14:15:00,
2013-02-23 06:20:00,45.8,44.4,30.16,SW,231,5.0,5.0,95,0.00,,,0.01,Wunderground v.1.15,2013-02-23 14:20:00,
2013-02-23 06:25:00,45.7,44.4,30.16,WSW,246,4.0,9.0,95,0.00,,,0.01,Wunderground v.1.15,2013-02-23 14:25:00,
2013-02-23 06:30:00,45.5,43.9,30.17,WSW,258,3.0,9.0,94,0.00,,,0.01,Wunderground v.1.15,2013-02-23 14:30:00,
2013-02-23 06:35:00,45.4,43.8,30.17,WSW,250,1.0,9.0,94,0.00,,,0.01,Wunderground v.1.15,2013-02-23 14:35:00,
2013-02-23 06:40:00,45.2,43.6,30.17,SW,231,1.0,9.0,94,0.00,,,0.01,Wunderground v.1.15,2013-02-23 14:40:00,
2013-02-23 06:45:00,45.1,43.5,30.17,NW,313,1.0,9.0,94,0.00,,,0.01,Wunderground v.1.15,2013-02-23 14:45:00,
2013-02-23 06:55:00,44.8,43.2,30.18,WSW,254,0.0,9.0,94,0.00,,,0.01,Wunderground v.1.15,2013-02-23 14:55:00,
2013-02-23 07:00:00,44.7,43.1,30.18,West,277,1.0,1.0,94,0.00,,,0.01,Wunderground v.1.15,2013-02-23 15:00:00,
2013-02-23 07:05:00,44.5,42.9,30.18,West,277,0.0,9.0,94,0.00,,,0.01,Wunderground v.1.15,2013-02-23 15:05:00,
2013-02-23 07:10:00,44.3,42.7,30.18,West,277,0.0,9.0,94,0.00,,,0.01,Wunderground v.1.15,2013-02-23 15:10:00,
2013-02-23 07:15:00,44.2,42.6,30.18,West,277,0.0,9.0,94,0.00,,,0.01,Wunderground v.1.15,2013-02-23 15:15:00,
2013-02-23 07:20:00,44.1,42.5,30.18,West,277,0.0,9.0,94,0.00,,,0.01,Wunderground v.1.15,2013-02-23 15:20:00,
2013-02-23 07:25:00,43.9,42.3,30.19,West,277,0.0,9.0,94,0.00,,,0.01,Wunderground v.1.15,2013-02-23 15:25:00,
2013-02-23 07:30:00,43.8,42.2,30.19,West,277,0.0,9.0,94,0.00,,,0.01,Wunderground v.1.15,2013-02-23 15:30:00,
2013-02-23 07:35:00,43.8,42.5,30.19,West,277,0.0,9.0,95,0.00,,,0.01,Wunderground v.1.15,2013-02-23 15:35:00,
2013-02-23 07:40:00,43.7,42.4,30.19,West,278,0.0,9.0,95,0.00,,,0.01,Wunderground v.1.15,2013-02-23 15:40:00,
2013-02-23 07:45:00,43.8,42.5,30.20,West,278,0.0,9.0,95,0.00,,,0.01,Wunderground v.1.15,2013-02-23 15:45:00,
2013-02-23 07:50:00,43.8,42.5,30.20,West,278,0.0,9.0,95,0.00,,,0.01,Wunderground v.1.15,2013-02-23 15:50:00,
2013-02-23 08:00:00,44.1,43.0,30.20,WNW,288,0.0,9.0,96,0.00,,,0.01,Wunderground v.1.15,2013-02-23 16:00:00,
2013-02-23 08:05:00,44.5,43.4,30.20,WNW,288,0.0,9.0,96,0.00,,,0.01,Wunderground v.1.15,2013-02-23 16:05:00,
2013-02-23 08:10:00,45.0,43.9,30.20,WNW,288,0.0,9.0,96,0.00,,,0.01,Wunderground v.1.15,2013-02-23 16:10:00,
2013-02-23 08:15:00,45.8,44.7,30.21,WNW,288,0.0,9.0,96,0.00,,,0.01,Wunderground v.1.15,2013-02-23 16:15:00,
2013-02-23 08:20:00,46.4,45.3,30.21,SSW,192,0.0,9.0,96,0.00,,,0.01,Wunderground v.1.15,2013-02-23 16:20:00,
2013-02-23 08:25:00,47.1,46.0,30.21,SSW,192,0.0,9.0,96,0.00,,,0.01,Wunderground v.1.15,2013-02-23 16:25:00,
2013-02-23 08:30:00,47.3,45.4,30.21,WNW,284,1.0,9.0,93,0.00,,,0.01,Wunderground v.1.15,2013-02-23 16:30:00,
2013-02-23 08:35:00,47.2,44.7,30.22,WNW,286,2.0,9.0,91,0.00,,,0.01,Wunderground v.1.15,2013-02-23 16:35:00,
2013-02-23 08:40:00,47.4,44.6,30.22,NW,309,2.0,2.0,90,0.00,,,0.01,Wunderground v.1.15,2013-02-23 16:40:00,
2013-02-23 08:45:00,47.6,44.5,30.22,NW,307,3.0,3.0,89,0.00,,,0.01,Wunderground v.1.15,2013-02-23 16:45:00,
2013-02-23 08:50:00,47.9,44.8,30.22,NW,307,2.0,9.0,89,0.00,,,0.01,Wunderground v.1.15,2013-02-23 16:50:00,
2013-02-23 09:00:00,48.3,44.6,30.22,WNW,298,3.0,3.0,87,0.00,,,0.01,Wunderground v.1.15,2013-02-23 17:00:00,
2013-02-23 09:05:00,48.8,44.8,30.22,NW,318,2.0,9.0,86,0.00,,,0.01,Wunderground v.1.15,2013-02-23 17:05:00,
2013-02-23 09:10:00,49.4,44.8,30.22,NE,45,1.0,1.0,84,0.00,,,0.01,Wunderground v.1.15,2013-02-23 17:10:00,
2013-02-23 09:15:00,50.0,45.0,30.22,NW,306,1.0,9.0,83,0.00,,,0.01,Wunderground v.1.15,2013-02-23 17:15:00,
2013-02-23 09:20:00,50.4,44.5,30.22,WNW,295,0.0,9.0,80,0.00,,,0.01,Wunderground v.1.15,2013-02-23 17:20:00,
2013-02-23 09:25:00,51.2,44.2,30.21,NE,35,1.0,9.0,77,0.00,,,0.01,Wunderground v.1.15,2013-02-23 17:25:00,
2013-02-23 09:30:00,51.5,43.8,30.21,SW,227,2.0,9.0,75,0.00,,,0.01,Wunderground v.1.15,2013-02-23 17:30:00,
2013-02-23 09:35:00,51.5,43.5,30.21,NW,325,2.0,9.0,74,0.00,,,0.01,Wunderground v.1.15,2013-02-23 17:35:00,
2013-02-23 09:40:00,51.9,43.2,30.21,WNW,298,1.0,9.0,72,0.00,,,0.01,Wunderground v.1.15,2013-02-23 17:40:00,
2013-02-23 09:45:00,52.2,43.1,30.21,NW,321,1.0,9.0,71,0.00,,,0.01,Wunderground v.1.15,2013-02-23 17:45:00,
2013-02-23 09:50:00,52.4,42.1,30.21,WNW,298,2.0,9.0,68,0.00,,,0.01,Wunderground v.1.15,2013-02-23 17:50:00,
2013-02-23 10:00:00,53.2,42.9,30.21,NNW,344,2.0,2.0,68,0.00,,,0.01,Wunderground v.1.15,2013-02-23 18:00:00,
2013-02-23 10:05:00,53.7,42.2,30.21,NW,307,1.0,9.0,65,0.00,,,0.01,Wunderground v.1.15,2013-02-23 18:05:00,
2013-02-23 10:10:00,53.8,41.9,30.21,NE,44,1.0,1.0,64,0.00,,,0.01,Wunderground v.1.15,2013-02-23 18:10:00,
2013-02-23 10:15:00,54.3,42.8,30.20,NNE,32,2.0,2.0,65,0.00,,,0.01,Wunderground v.1.15,2013-02-23 18:15:00,
2013-02-23 10:25:00,55.3,41.2,30.20,ENE,70,2.0,9.0,59,0.00,,,0.01,Wunderground v.1.15,2013-02-23 18:25:00,
2013-02-23 10:30:00,55.4,40.9,30.20,NW,314,2.0,2.0,58,0.00,,,0.01,Wunderground v.1.15,2013-02-23 18:30:00,
2013-02-23 10:35:00,55.5,41.0,30.20,South,180,1.0,9.0,58,0.00,,,0.01,Wunderground v.1.15,2013-02-23 18:35:00,
2013-02-23 10:45:00,55.7,42.5,30.20,NW,318,2.0,9.0,61,0.00,,,0.01,Wunderground v.1.15,2013-02-23 18:45:00,
2013-02-23 10:50:00,56.3,42.6,30.20,NW,307,2.0,9.0,60,0.00,,,0.01,Wunderground v.1.15,2013-02-23 18:50:00,
2013-02-23 11:00:00,56.3,41.7,30.19,WSW,253,4.0,4.0,58,0.00,,,0.01,Wunderground v.1.15,2013-02-23 19:00:00,
2013-02-23 11:05:00,55.9,40.9,30.20,WNW,291,4.0,9.0,57,0.00,,,0.01,Wunderground v.1.15,2013-02-23 19:05:00,
2013-02-23 11:15:00,56.8,39.8,30.19,SSW,205,2.0,9.0,53,0.00,,,0.01,Wunderground v.1.15,2013-02-23 19:15:00,
2013-02-23 11:25:00,56.4,38.5,30.19,WNW,300,4.0,9.0,51,0.00,,,0.01,Wunderground v.1.15,2013-02-23 19:25:00,
2013-02-23 11:35:00,56.5,40.5,30.19,NW,309,5.0,9.0,55,0.00,,,0.01,Wunderground v.1.15,2013-02-23 19:35:00,
2013-02-23 11:40:00,57.0,39.5,30.18,NW,317,5.0,5.0,52,0.00,,,0.01,Wunderground v.1.15,2013-02-23 19:40:00,
2013-02-23 11:50:00,55.7,39.8,30.18,SSW,193,6.0,9.0,55,0.00,,,0.01,Wunderground v.1.15,2013-02-23 19:50:00,
2013-02-23 11:55:00,56.3,39.9,30.18,WNW,289,6.0,9.0,54,0.00,,,0.01,Wunderground v.1.15,2013-02-23 19:55:00,
2013-02-23 12:05:00,55.8,39.4,30.18,WSW,249,8.0,9.0,54,0.00,,,0.01,Wunderground v.1.15,2013-02-23 20:05:00,
2013-02-23 12:15:00,55.9,39.5,30.17,WSW,240,7.0,12.0,54,0.00,,,0.01,Wunderground v.1.15,2013-02-23 20:15:00,
2013-02-23 12:20:00,55.8,38.9,30.17,SW,232,10.0,10.0,53,0.00,,,0.01,Wunderground v.1.15,2013-02-23 20:20:00,
2013-02-23 12:25:00,55.4,38.5,30.17,SW,221,10.0,10.0,53,0.00,,,0.01,Wunderground v.1.15,2013-02-23 20:25:00,
2013-02-23 12:35:00,56.7,38.3,30.16,WSW,241,8.0,11.0,50,0.00,,,0.01,Wunderground v.1.15,2013-02-23 20:35:00,
2013-02-23 12:40:00,56.5,39.1,30.16,WSW,237,8.0,10.0,52,0.00,,,0.01,Wunderground v.1.15,2013-02-23 20:40:00,
2013-02-23 12:45:00,56.2,38.8,30.16,SW,219,9.0,10.0,52,0.00,,,0.01,Wunderground v.1.15,2013-02-23 20:45:00,
2013-02-23 12:55:00,57.6,38.0,30.16,West,268,5.0,12.0,48,0.00,,,0.01,Wunderground v.1.15,2013-02-23 20:55:00,
2013-02-23 13:05:00,58.0,35.6,30.15,WNW,283,8.0,9.0,43,0.00,,,0.01,Wunderground v.1.15,2013-02-23 21:05:00,
2013-02-23 13:15:00,58.2,37.5,30.15,WSW,245,7.0,9.0,46,0.00,,,0.01,Wunderground v.1.15,2013-02-23 21:15:00,
2013-02-23 13:20:00,58.0,37.9,30.15,WSW,250,6.0,6.0,47,0.00,,,0.01,Wunderground v.1.15,2013-02-23 21:20:00,
2013-02-23 13:30:00,60.0,35.6,30.14,WNW,297,4.0,9.0,40,0.00,,,0.01,Wunderground v.1.15,2013-02-23 21:30:00,
2013-02-23 13:40:00,60.1,35.0,30.13,WNW,289,6.0,6.0,39,0.00,,,0.01,Wunderground v.1.15,2013-02-23 21:40:00,
2013-02-23 13:45:00,60.5,33.4,30.14,West,268,6.0,9.0,36,0.00,,,0.01,Wunderground v.1.15,2013-02-23 21:45:00,
2013-02-23 13:50:00,60.8,34.3,30.13,NW,325,6.0,6.0,37,0.00,,,0.01,Wunderground v.1.15,2013-02-23 21:50:00,
2013-02-23 14:00:00,60.5,36.7,30.13,WSW,240,6.0,9.0,41,0.00,,,0.01,Wunderground v.1.15,2013-02-23 22:00:00,
2013-02-23 14:10:00,60.1,35.0,30.13,WNW,285,6.0,6.0,39,0.00,,,0.01,Wunderground v.1.15,2013-02-23 22:10:00,
2013-02-23 14:20:00,60.7,34.9,30.12,WNW,301,5.0,5.0,38,0.00,,,0.01,Wunderground v.1.15,2013-02-23 22:20:00,
2013-02-23 14:25:00,61.0,36.5,30.13,NW,322,4.0,9.0,40,0.00,,,0.01,Wunderground v.1.15,2013-02-23 22:25:00,
2013-02-23 14:30:00,61.7,37.1,30.13,NW,313,3.0,10.0,40,0.00,,,0.01,Wunderground v.1.15,2013-02-23 22:30:00,
2013-02-23 14:40:00,59.9,35.5,30.13,WSW,237,7.0,9.0,40,0.00,,,0.01,Wunderground v.1.15,2013-02-23 22:40:00,
2013-02-23 14:45:00,58.0,38.9,30.12,WSW,258,8.0,10.0,49,0.00,,,0.01,Wunderground v.1.15,2013-02-23 22:45:00,
2013-02-23 14:55:00,58.1,38.5,30.12,SSW,205,6.0,10.0,48,0.00,,,0.01,Wunderground v.1.15,2013-02-23 22:55:00,
2013-02-23 15:00:00,58.2,38.6,30.12,WSW,240,7.0,9.0,48,0.00,,,0.01,Wunderground v.1.15,2013-02-23 23:00:00,
2013-02-23 15:10:00,56.9,38.9,30.12,WNW,282,10.0,10.0,51,0.00,,,0.01,Wunderground v.1.15,2013-02-23 23:10:00,
2013-02-23 15:15:00,57.5,37.9,30.12,WNW,283,9.0,10.0,48,0.00,,,0.01,Wunderground v.1.15,2013-02-23 23:15:00,
2013-02-23 15:20:00,57.4,38.9,30.13,WSW,254,8.0,10.0,50,0.00,,,0.01,Wunderground v.1.15,2013-02-23 23:20:00,
2013-02-23 15:25:00,56.4,39.0,30.13,West,276,8.0,10.0,52,0.00,,,0.01,Wunderground v.1.15,2013-02-23 23:25:00,
2013-02-23 15:30:00,55.8,39.4,30.12,WSW,257,9.0,9.0,54,0.00,,,0.01,Wunderground v.1.15,2013-02-23 23:30:00,
2013-02-23 15:35:00,55.7,40.2,30.12,West,262,8.0,9.0,56,0.00,,,0.01,Wunderground v.1.15,2013-02-23 23:35:00,
2013-02-23 15:45:00,56.3,39.9,30.12,SW,216,8.0,13.0,54,0.00,,,0.01,Wunderground v.1.15,2013-02-23 23:45:00,
2013-02-23 15:50:00,55.7,38.8,30.12,SSW,193,9.0,9.0,53,0.00,,,0.01,Wunderground v.1.15,2013-02-23 23:50:00,
2013-02-23 15:55:00,55.3,39.4,30.12,SW,217,10.0,10.0,55,0.00,,,0.01,Wunderground v.1.15,2013-02-23 23:55:00,
2013-02-23 16:00:00,55.4,40.4,30.13,SW,231,9.0,10.0,57,0.00,,,0.01,Wunderground v.1.15,2013-02-24 00:00:00,
2013-02-23 16:05:00,55.5,40.0,30.12,WSW,248,8.0,10.0,56,0.00,,,0.01,Wunderground v.1.15,2013-02-24 00:05:00,
2013-02-23 16:15:00,55.4,40.0,30.12,West,273,8.0,11.0,56,0.00,,,0.01,Wunderground v.1.15,2013-02-24 00:15:00,
2013-02-23 16:20:00,54.9,39.5,30.12,SW,216,8.0,10.0,56,0.00,,,0.01,Wunderground v.1.15,2013-02-24 00:20:00,
2013-02-23 16:25:00,54.8,39.8,30.12,SW,229,9.0,10.0,57,0.00,,,0.01,Wunderground v.1.15,2013-02-24 00:25:00,
2013-02-23 16:30:00,54.6,40.1,30.12,SSW,200,9.0,11.0,58,0.00,,,0.01,Wunderground v.1.15,2013-02-24 00:30:00,
2013-02-23 16:35:00,54.7,40.6,30.12,WNW,285,8.0,11.0,59,0.00,,,0.01,Wunderground v.1.15,2013-02-24 00:35:00,
2013-02-23 16:40:00,55.5,39.1,30.12,NW,309,6.0,6.0,54,0.00,,,0.01,Wunderground v.1.15,2013-02-24 00:40:00,
2013-02-23 16:45:00,56.3,38.9,30.12,WSW,255,4.0,6.0,52,0.00,,,0.01,Wunderground v.1.15,2013-02-24 00:45:00,
2013-02-23 16:50:00,56.8,38.9,30.12,NW,326,4.0,10.0,51,0.00,,,0.01,Wunderground v.1.15,2013-02-24 00:50:00,
2013-02-23 16:55:00,56.9,38.4,30.12,NW,320,4.0,10.0,50,0.00,,,0.01,Wunderground v.1.15,2013-02-24 00:55:00,
2013-02-23 17:00:00,56.9,38.4,30.12,SW,224,4.0,5.0,50,0.00,,,0.01,Wunderground v.1.15,2013-02-24 01:00:00,
2013-02-23 17:05:00,56.8,38.3,30.12,WNW,285,3.0,5.0,50,0.00,,,0.01,Wunderground v.1.15,2013-02-24 01:05:00,
2013-02-23 17:10:00,56.7,38.3,30.12,West,274,4.0,4.0,50,0.00,,,0.01,Wunderground v.1.15,2013-02-24 01:10:00,
2013-02-23 17:20:00,55.5,38.1,30.12,West,281,4.0,4.0,52,0.00,,,0.01,Wunderground v.1.15,2013-02-24 01:20:00,
2013-02-23 17:25:00,55.1,38.3,30.13,WNW,294,3.0,5.0,53,0.00,,,0.01,Wunderground v.1.15,2013-02-24 01:25:00,
2013-02-23 17:30:00,54.6,38.3,30.13,WSW,252,3.0,3.0,54,0.00,,,0.01,Wunderground v.1.15,2013-02-24 01:30:00,
2013-02-23 17:35:00,54.1,38.7,30.13,SW,233,3.0,14.0,56,0.00,,,0.01,Wunderground v.1.15,2013-02-24 01:35:00,
2013-02-23 17:40:00,53.4,38.5,30.13,West,266,3.0,14.0,57,0.00,,,0.01,Wunderground v.1.15,2013-02-24 01:40:00,
2013-02-23 17:50:00,52.5,38.6,30.13,WSW,250,2.0,14.0,59,0.00,,,0.01,Wunderground v.1.15,2013-02-24 01:50:00,
2013-02-23 17:55:00,52.1,38.6,30.13,WSW,240,2.0,14.0,60,0.00,,,0.01,Wunderground v.1.15,2013-02-24 01:55:00,
2013-02-23 18:00:00,51.8,38.8,30.14,WSW,240,1.0,1.0,61,0.00,,,0.01,Wunderground v.1.15,2013-02-24 02:00:00,
2013-02-23 18:05:00,51.4,38.0,30.14,WSW,252,0.0,14.0,60,0.00,,,0.01,Wunderground v.1.15,2013-02-24 02:05:00,
2013-02-23 18:10:00,51.1,37.3,30.14,NW,310,1.0,1.0,59,0.00,,,0.01,Wunderground v.1.15,2013-02-24 02:10:00,
2013-02-23 18:20:00,50.6,37.2,30.14,SW,235,1.0,14.0,60,0.00,,,0.01,Wunderground v.1.15,2013-02-24 02:20:00,
2013-02-23 18:25:00,50.4,37.0,30.14,West,281,1.0,14.0,60,0.00,,,0.01,Wunderground v.1.15,2013-02-24 02:25:00,
2013-02-23 18:30:00,50.2,36.8,30.14,West,281,0.0,14.0,60,0.00,,,0.01,Wunderground v.1.15,2013-02-24 02:30:00,
2013-02-23 18:35:00,49.9,37.0,30.14,West,281,0.0,14.0,61,0.00,,,0.01,Wunderground v.1.15,2013-02-24 02:35:00,
2013-02-23 18:40:00,49.6,37.1,30.15,West,281,0.0,14.0,62,0.00,,,0.01,Wunderground v.1.15,2013-02-24 02:40:00,
2013-02-23 18:45:00,49.3,37.2,30.15,West,281,0.0,14.0,63,0.00,,,0.01,Wunderground v.1.15,2013-02-24 02:45:00,
2013-02-23 18:55:00,48.4,37.2,30.15,West,281,0.0,14.0,65,0.00,,,0.01,Wunderground v.1.15,2013-02-24 02:55:00,
2013-02-23 19:00:00,48.0,37.2,30.15,West,281,0.0,14.0,66,0.00,,,0.01,Wunderground v.1.15,2013-02-24 03:00:00,
2013-02-23 19:05:00,47.6,37.2,30.15,NNW,336,0.0,14.0,67,0.00,,,0.01,Wunderground v.1.15,2013-02-24 03:05:00,
2013-02-23 19:10:00,47.2,37.2,30.15,North,356,0.0,14.0,68,0.00,,,0.01,Wunderground v.1.15,2013-02-24 03:10:00,
2013-02-23 19:15:00,47.1,37.1,30.15,North,356,0.0,14.0,68,0.00,,,0.01,Wunderground v.1.15,2013-02-24 03:15:00,
2013-02-23 19:25:00,46.7,37.1,30.15,North,355,0.0,14.0,69,0.00,,,0.01,Wunderground v.1.15,2013-02-24 03:25:00,
2013-02-23 19:30:00,46.5,37.2,30.15,North,355,0.0,14.0,70,0.00,,,0.01,Wunderground v.1.15,2013-02-24 03:30:00,
2013-02-23 19:35:00,46.1,36.9,30.15,North,356,0.0,14.0,70,0.00,,,0.01,Wunderground v.1.15,2013-02-24 03:35:00,
2013-02-23 19:40:00,45.8,36.9,30.15,North,356,0.0,14.0,71,0.00,,,0.01,Wunderground v.1.15,2013-02-24 03:40:00,
2013-02-23 19:45:00,45.4,36.9,30.15,North,356,0.0,14.0,72,0.00,,,0.01,Wunderground v.1.15,2013-02-24 03:45:00,
2013-02-23 19:55:00,44.9,36.4,30.16,ENE,67,0.0,14.0,72,0.00,,,0.01,Wunderground v.1.15,2013-02-24 03:55:00,
2013-02-23 20:00:00,44.8,36.3,30.15,ENE,75,0.0,14.0,72,0.00,,,0.01,Wunderground v.1.15,2013-02-24 04:00:00,
2013-02-23 20:05:00,44.6,36.1,30.16,ENE,75,0.0,14.0,72,0.00,,,0.01,Wunderground v.1.15,2013-02-24 04:05:00,
2013-02-23 20:10:00,44.5,36.0,30.16,ENE,75,0.0,14.0,72,0.00,,,0.01,Wunderground v.1.15,2013-02-24 04:10:00,
2013-02-23 20:15:00,44.4,36.3,30.16,East,84,0.0,14.0,73,0.00,,,0.01,Wunderground v.1.15,2013-02-24 04:15:00,
2013-02-23 20:25:00,44.5,36.4,30.16,ENE,71,0.0,14.0,73,0.00,,,0.01,Wunderground v.1.15,2013-02-24 04:25:00,
2013-02-23 20:30:00,44.4,36.6,30.16,ENE,61,0.0,14.0,74,0.00,,,0.01,Wunderground v.1.15,2013-02-24 04:30:00,
2013-02-23 20:35:00,44.3,36.5,30.16,NE,46,0.0,14.0,74,0.00,,,0.01,Wunderground v.1.15,2013-02-24 04:35:00,
2013-02-23 20:40:00,44.5,37.1,30.16,NE,44,0.0,14.0,75,0.00,,,0.01,Wunderground v.1.15,2013-02-24 04:40:00,
2013-02-23 20:45:00,44.6,36.8,30.16,ENE,57,0.0,14.0,74,0.00,,,0.01,Wunderground v.1.15,2013-02-24 04:45:00,
2013-02-23 20:50:00,44.7,36.9,30.16,ENE,57,0.0,14.0,74,0.00,,,0.01,Wunderground v.1.15,2013-02-24 04:50:00,
2013-02-23 21:00:00,44.6,37.2,30.16,NE,51,0.0,14.0,75,0.00,,,0.01,Wunderground v.1.15,2013-02-24 05:00:00,
2013-02-23 21:05:00,44.5,37.1,30.17,NE,51,0.0,14.0,75,0.00,,,0.01,Wunderground v.1.15,2013-02-24 05:05:00,
2013-02-23 21:10:00,44.4,37.0,30.17,NE,51,0.0,14.0,75,0.00,,,0.01,Wunderground v.1.15,2013-02-24 05:10:00,
2013-02-23 21:15:00,44.3,36.9,30.17,NE,48,0.0,14.0,75,0.00,,,0.01,Wunderground v.1.15,2013-02-24 05:15:00,
2013-02-23 21:20:00,44.1,37.0,30.17,NE,48,1.0,14.0,76,0.00,,,0.01,Wunderground v.1.15,2013-02-24 05:20:00,
2013-02-23 21:30:00,43.8,36.7,30.17,NE,51,1.0,1.0,76,0.00,,,0.01,Wunderground v.1.15,2013-02-24 05:30:00,
2013-02-23 21:35:00,43.8,36.7,30.17,NE,56,1.0,14.0,76,0.00,,,0.01,Wunderground v.1.15,2013-02-24 05:35:00,
2013-02-23 21:40:00,43.9,36.8,30.17,NE,41,2.0,2.0,76,0.00,,,0.01,Wunderground v.1.15,2013-02-24 05:40:00,
2013-02-23 21:45:00,44.1,36.7,30.17,NE,44,1.0,14.0,75,0.00,,,0.01,Wunderground v.1.15,2013-02-24 05:45:00,
2013-02-23 21:50:00,44.2,36.4,30.17,NE,44,0.0,14.0,74,0.00,,,0.01,Wunderground v.1.15,2013-02-24 05:50:00,
2013-02-23 22:00:00,44.5,36.4,30.17,NE,53,1.0,14.0,73,0.00,,,0.01,Wunderground v.1.15,2013-02-24 06:00:00,
2013-02-23 22:05:00,44.5,36.0,30.17,NE,46,1.0,14.0,72,0.00,,,0.01,Wunderground v.1.15,2013-02-24 06:05:00,
2013-02-23 22:10:00,44.6,35.8,30.17,NE,39,2.0,14.0,71,0.00,,,0.01,Wunderground v.1.15,2013-02-24 06:10:00,
2013-02-23 22:15:00,44.9,35.3,30.17,NW,307,2.0,14.0,69,0.00,,,0.01,Wunderground v.1.15,2013-02-24 06:15:00,
2013-02-23 22:20:00,45.4,35.1,30.17,NE,39,3.0,14.0,67,0.00,,,0.01,Wunderground v.1.15,2013-02-24 06:20:00,
2013-02-23 22:25:00,45.7,35.0,30.17,NE,40,3.0,14.0,66,0.00,,,0.01,Wunderground v.1.15,2013-02-24 06:25:00,
2013-02-23 22:30:00,45.9,34.4,30.17,NE,53,3.0,14.0,64,0.00,,,0.01,Wunderground v.1.15,2013-02-24 06:30:00,
2013-02-23 22:35:00,46.1,33.8,30.17,NNE,24,3.0,14.0,62,0.00,,,0.01,Wunderground v.1.15,2013-02-24 06:35:00,
2013-02-23 22:40:00,46.4,33.7,30.17,WNW,303,2.0,14.0,61,0.00,,,0.01,Wunderground v.1.15,2013-02-24 06:40:00,
2013-02-23 22:45:00,46.6,33.4,30.17,SW,236,2.0,14.0,60,0.00,,,0.01,Wunderground v.1.15,2013-02-24 06:45:00,
2013-02-23 22:50:00,46.8,33.2,30.17,South,179,2.0,2.0,59,0.00,,,0.01,Wunderground v.1.15,2013-02-24 06:50:00,
2013-02-23 22:55:00,46.9,33.3,30.17,WSW,243,2.0,14.0,59,0.00,,,0.01,Wunderground v.1.15,2013-02-24 06:55:00,
2013-02-23 23:05:00,46.8,33.6,30.17,SW,224,2.0,14.0,60,0.00,,,0.01,Wunderground v.1.15,2013-02-24 07:05:00,
2013-02-23 23:10:00,46.7,33.5,30.16,WNW,285,2.0,2.0,60,0.00,,,0.01,Wunderground v.1.15,2013-02-24 07:10:00,
2013-02-23 23:15:00,46.5,33.8,30.17,SW,226,2.0,4.0,61,0.00,,,0.01,Wunderground v.1.15,2013-02-24 07:15:00,
2013-02-23 23:20:00,46.3,33.6,30.17,NW,325,2.0,14.0,61,0.00,,,0.01,Wunderground v.1.15,2013-02-24 07:20:00,
2013-02-23 23:25:00,46.1,33.4,30.17,ENE,78,1.0,14.0,61,0.00,,,0.01,Wunderground v.1.15,2013-02-24 07:25:00,
2013-02-23 23:30:00,46.2,33.1,30.16,SW,228,1.0,1.0,60,0.00,,,0.01,Wunderground v.1.15,2013-02-24 07:30:00,
2013-02-23 23:35:00,46.0,32.9,30.16,SSW,193,1.0,14.0,60,0.00,,,0.01,Wunderground v.1.15,2013-02-24 07:35:00,
2013-02-23 23:40:00,46.0,32.0,30.16,WNW,291,1.0,14.0,58,0.00,,,0.01,Wunderground v.1.15,2013-02-24 07:40:00,
2013-02-23 23:45:00,46.1,31.7,30.16,WNW,302,2.0,14.0,57,0.00,,,0.01,Wunderground v.1.15,2013-02-24 07:45:00,
2013-02-23 23:50:00,46.1,31.7,30.16,WNW,288,2.0,14.0,57,0.00,,,0.01,Wunderground v.1.15,2013-02-24 07:50:00,
2013-02-23 23:55:00,46.1,31.3,30.16,SW,216,2.0,14.0,56,0.00,,,0.01,Wunderground v.1.15,2013-02-24 07:55:00,